Temperature
11 11 11 11 11 11 10 10 10 10 10 10 10 10 10 10 10 10 10 10 10 10 10 10 10 9 10 10 10 10 10 10 10 10 10 9 9 10 9 10 9 9 9
10 10 10 10 10 10 10 10 10 10 9 9 9 9 9 9 9 9 9 9 9 9 9 9 9 9 9 9 9 9 9 9 9 9 9 9 9 9 9 9 9 9 9
10 10 10 10 10 10 10 9 9 9 9 9 9 9 9 9 9 9 9 9 9 9 9 9 9 9 9 9 9 9 9 9 9 9 9 8 8 8 8 8 8 8 8
9 9 9 9 9 9 9 9 9 9 9 8 8 8 8 9 9 9 9 9 9 8 8 8 8 8 8 8 8 8 8 8 8 8 8 8 8 8 8 8 8 8 8
9 9 9 9 9 9 9 9 9 8 8 8 8 8 8 8 8 8 8 8 8 8 8 8 8 8 8 8 8 8 8 8 8 7 7 7 7 7 7 7 7 7 7
8 8 8 8 8 8 8 8 8 8 8 8 8 7 8 8 8 8 8 8 8 8 7 7 7 7 7 7 7 7 7 7 7 7 7 7 7 7 7 6 7 6 7
8 8 8 8 8 8 8 8 8 7 7 7 7 7 7 7 7 7 7 7 7 7 7 7 7 7 7 7 7 7 7 7 7 7 6 6 6 6 6 6 6 6 6
7 7 7 8 7 7 7 7 7 7 7 7 7 6 6 6 7 7 7 7 7 7 7 7 7 7 6 6 7 6 6 6 6 6 6 6 6 6 5 5 5 6 6
7 7 7 7 7 7 7 7 7 7 7 6 6 6 6 6 6 6 6 6 6 6 6 6 6 6 6 6 6 6 6 6 6 6 6 5 5 5 5 5 5 5 5
6 6 6 6 6 6 6 6 6 6 6 6 6 6 6 6 6 5 5 6 5 5 5 5 5 5 5 5 5 5 5 5 5 5 5 5 5 5 5 5 5 5 5
6 6 6 6 6 6 6 6 6 6 6 6 6 6 5 5 5 5 4 5 5 5 5 5 5 5 5 5 5 5 5 5 5 5 5 5 5 5 4 4 4 4 4
5 5 5 5 5 5 5 5 6 5 5 5 5 5 5 5 4 4 4 4 4 4 4 4 4 4 4 4 4 4 4 4 4 4 4 4 4 4 4 4 4 4 4
5 5 5 5 5 5 5 5 5 5 5 5 5 5 4 4 4 4 4 3 3 4 4 4 4 3 3 3 4 4 4 4 4 4 4 4 4 4 4 4 3 3 3
5 5 4 4 4 4 4 4 4 4 4 4 4 4 4 4 4 3 3 3 3 3 3 3 3 3 3 3 3 3 3 3 3 3 3 3 3 3 3 3 3 3 3
4 4 4 4 4 4 4 4 4 4 4 4 4 4 3 3 3 3 3 3 2 2 2 2 2 2 2 2 2 2 2 2 2 3 3 3 3 2 3 3 3 2 2
3 3 3 3 3 3 3 3 3 3 3 3 3 3 3 3 3 3 2 2 2 2 1 2 2 2 2 2 2 2 2 2 2 2 2 2 2 2 2 2 2 2 2
3 3 3 3 3 3 3 3 3 3 3 3 3 3 3 2 2 2 2 2 2 2 1 1 1 1 1 1 1 2 2 2 2 2 1 1 1 1 1 1 1 1 1
3 3 3 2 3 3 3 3 3 3 2 2 2 2 2 2 2 2 2 2 2 1 1 1 1 1 1 1 1 1 1 1 1 1 1 1 1 1 1 1 1 1 0
3 3 2 2 2 2 2 2 2 2 2 2 2 2 2 1 1 1 1 1 1 1 1 1 1 0 0 0 0 0 0 0 0 0 0 0 0 0 -0 0 -0 -0 -0
2 2 2 2 2 2 2 2 2 2 2 2 1 1 1 1 1 1 1 1 1 1 0 0 0 -0 -0 -0 -0 -0 -0 -0 -0 -0 -0 -0 -1 -1 -1 -0 -0 -0 -0
2 2 2 1 1 1 2 2 2 1 1 1 1 1 1 1 1 1 1 1 1 0 0 -0 -0 -0 -1 -1 -1 -1 -1 -1 -1 -1 -1 -1 -1 -1 -1 -1 -1 -1 -1
1 1 1 1 1 1 1 1 1 1 1 1 1 1 1 1 0 0 0 0 0 0 -0 -0 -1 -1 -1 -1 -1 -1 -1 -2 -2 -1 -2 -1 -1 -1 -1 -1 -1 -2 -2
1 1 1 1 1 1 1 1 1 1 1 0 0 0 0 0 0 0 0 0 -0 -0 -0 -1 -1 -1 -1 -1 -1 -2 -2 -2 -2 -2 -2 -2 -2 -2 -2 -2 -2 -2 -2
0 0 0 0 0 0 0 0 0 0 0 -0 -0 0 0 0 -0 -0 -0 -0 -0 -1 -1 -1 -1 -1 -1 -1 -2 -2 -2 -2 -2 -2 -3 -3 -2 -2 -2 -2 -2 -2 -2
-0 -0 -0 -0 -0 -0 -0 -0 -0 -0 -0 -0 -0 -0 -0 -0 -0 -1 -1 -1 -1 -1 -1 -1 -1 -1 -1 -2 -2 -2 -2 -3 -3 -3 -3 -3 -3 -3 -3 -3 -3 -3 -3
-0 -0 -1 -1 -1 -1 -1 -1 -1 -1 -1 -0 -1 -1 -1 -1 -1 -1 -1 -1 -1 -1 -1 -1 -2 -2 -2 -2 -2 -2 -3 -3 -3 -3 -3 -3 -4 -4 -4 -3 -3 -3 -3
Wind_Speed
2 3 3 3 3 3 3 2 3 3 3 3 3 3 3 4 4 5 5 6 5 5 5 4 4 4 4 4 4 4 4 4 4 4 4 4 4 5 5 6 6 6 6
3 2 2 2 2 2 2 2 2 2 2 2 2 3 3 3 3 3 4 4 5 4 4 4 4 4 3 3 3 4 4 4 4 4 4 4 4 4 5 5 6 6 7
2 2 2 2 2 2 3 3 2 3 2 1 1 2 2 2 3 3 3 3 2 2 2 3 3 3 3 3 3 3 4 4 4 4 5 5 5 5 5 6 6 7 7
2 2 2 1 1 2 2 1 1 1 1 1 1 1 1 1 1 2 2 2 3 2 1 1 2 2 3 2 2 3 3 3 4 4 5 5 6 6 6 6 7 7 7
2 2 2 1 1 2 1 1 1 1 0 0 0 1 0 0 0 1 2 2 2 2 1 1 1 2 2 3 3 3 3 3 4 4 5 6 6 7 6 7 8 8 8
1 2 2 1 2 1 0 1 1 1 0 0 1 1 1 1 1 1 1 2 2 2 2 1 1 1 2 2 3 4 4 4 5 5 6 6 7 8 8 7 7 8 8
2 2 1 1 1 1 1 1 1 1 1 1 1 1 2 2 1 1 1 1 1 1 1 1 1 1 1 2 3 4 4 5 6 6 6 7 7 8 8 8 7 8 9
2 2 2 1 1 1 1 1 1 1 0 0 1 0 1 2 1 1 0 1 0 0 0 1 1 1 2 1 2 4 5 6 7 7 7 7 8 8 9 9 8 8 9
2 2 2 1 1 1 1 1 1 1 1 1 1 2 1 1 2 1 1 1 1 1 1 1 1 2 2 1 2 3 5 6 7 8 8 8 9 9 9 9 9 9 10
2 2 2 1 2 1 1 2 2 1 2 2 1 1 1 1 0 2 2 2 1 2 2 2 2 3 3 2 3 4 5 6 7 8 8 9 9 9 10 10 10 10 11
2 2 2 2 1 1 2 2 2 1 1 2 1 1 1 1 1 1 3 2 2 3 2 2 2 3 3 2 3 4 6 6 7 8 8 9 10 10 11 11 11 11 11
2 2 2 2 2 2 2 2 3 3 2 2 1 1 1 1 1 1 2 3 3 3 3 2 2 2 2 2 3 4 6 7 7 8 8 9 10 11 11 12 12 12 12
2 3 2 2 2 2 3 2 2 3 3 3 3 3 2 2 1 1 2 2 3 2 2 2 2 2 2 2 3 5 6 8 8 8 9 9 10 11 11 12 12 12 12
3 3 3 2 2 2 2 2 2 3 3 3 3 3 2 2 1 2 2 1 2 2 2 3 2 2 2 3 5 6 6 8 8 9 9 10 10 11 11 12 12 12 13
3 4 4 3 2 2 2 2 2 2 2 3 3 3 3 3 2 2 2 2 2 3 4 3 2 2 4 4 5 5 6 7 8 9 9 10 10 11 11 11 12 12 12
3 4 4 4 4 3 3 3 3 3 2 3 3 4 4 3 3 2 3 2 3 3 4 3 3 3 4 5 6 6 6 8 7 8 9 9 10 10 10 11 11 11 11
3 4 4 4 4 4 4 4 4 4 4 4 4 4 4 4 3 3 3 3 3 3 5 4 3 3 3 3 5 6 6 6 6 8 9 10 10 10 10 11 11 11 11
3 3 3 4 4 4 4 5 5 5 5 4 4 4 4 3 4 3 3 3 4 3 4 5 4 3 3 3 3 4 5 6 5 7 9 10 10 10 10 10 11 11 12
3 3 3 4 4 4 4 4 5 5 5 5 5 5 4 4 4 3 3 3 3 3 3 3 4 3 2 2 3 4 4 4 6 7 8 9 9 10 11 11 11 12 12
4 4 4 4 4 3 4 3 4 4 4 4 5 5 5 5 5 5 4 4 3 3 3 2 3 3 2 3 2 3 4 3 4 5 7 8 9 10 11 11 11 11 10
4 4 4 3 3 3 3 3 3 4 4 4 4 4 5 5 6 5 4 3 3 3 3 3 3 3 3 2 3 2 4 3 3 3 3 4 5 5 7 9 10 10 10
3 3 4 4 4 3 4 4 4 4 4 4 4 4 4 5 5 7 7 6 5 4 4 4 4 4 4 4 3 3 3 3 4 2 2 4 3 4 4 5 7 9 10
3 3 3 3 3 4 4 5 5 4 5 5 5 4 3 4 4 4 5 6 6 7 7 5 5 6 5 4 3 3 3 4 5 3 3 5 3 4 4 6 7 9 10
3 3 3 3 3 4 5 5 4 3 4 4 5 5 4 4 4 3 3 3 3 4 5 4 5 5 5 3 3 3 3 4 4 3 2 4 4 4 5 5 7 9 10
2 2 3 3 3 3 5 4 4 3 3 3 3 3 4 4 5 4 3 2 3 3 3 4 5 5 6 5 3 1 2 3 4 3 2 2 2 3 3 4 5 7 9
2 1 1 1 2 3 3 3 3 2 2 2 2 3 4 4 5 4 3 3 3 3 1 1 2 3 3 3 4 3 2 3 3 3 1 1 2 3 3 2 2 4 6
Wind_Direction
98 84 74 83 80 76 75 68 62 66 66 56 58 59 50 53 59 71 64 49 50 59 56 66 74 74 68 64 61 55 49 39 27 20 12 11 11 7 3 2 355 347 342
97 99 87 78 75 87 83 75 73 71 64 69 56 50 53 50 60 75 83 64 43 46 50 53 61 65 61 58 54 49 41 34 17 6 356 352 353 350 348 342 345 339 335
106 104 109 98 74 88 91 89 80 70 61 73 67 44 56 49 53 67 88 88 70 48 42 39 44 50 44 43 42 35 25 22 17 1 355 344 340 337 338 339 334 336 334
110 97 112 115 87 85 84 103 107 80 35 17 15 9 46 53 41 68 83 99 94 84 48 21 23 20 17 13 11 15 11 5 1 352 349 346 336 332 334 331 332 327 327
112 105 119 112 114 95 105 122 95 118 86 2 334 320 327 141 231 97 99 106 101 95 93 27 9 355 350 346 347 343 343 340 339 339 335 338 336 324 326 325 322 325 325
124 111 114 113 117 132 151 138 113 90 123 261 328 337 300 263 175 143 119 105 114 119 105 51 14 334 327 326 322 322 325 328 325 322 325 326 327 325 316 318 322 320 320
121 112 121 119 126 165 187 167 141 128 17 15 30 338 309 282 169 154 108 96 109 117 84 46 22 338 292 292 308 315 321 324 322 315 314 316 321 323 319 318 320 320 317
133 133 132 157 170 162 172 160 151 165 295 97 108 94 313 314 309 264 184 180 152 71 2 335 328 333 321 292 293 299 307 312 315 315 314 314 314 316 318 316 316 315 315
148 142 149 156 161 163 198 191 189 181 202 231 153 141 161 238 303 278 257 237 232 280 287 287 285 277 278 297 292 286 294 304 307 308 312 314 314 315 315 318 317 312 312
155 153 158 169 174 174 194 208 194 210 179 205 237 223 204 182 180 295 288 265 279 288 284 300 293 275 260 259 271 283 285 300 307 307 310 313 315 317 318 318 318 317 314
161 167 173 174 188 181 184 204 194 205 202 195 202 221 248 285 239 228 268 277 293 278 274 276 265 263 256 251 264 278 291 297 302 304 306 310 313 314 315 317 319 319 318
200 186 194 199 200 191 190 202 201 200 212 211 218 218 203 208 239 246 263 266 274 281 283 275 258 266 264 254 273 289 295 299 301 303 305 309 312 312 311 313 315 317 317
225 219 211 207 209 206 190 181 206 208 205 210 219 229 233 229 224 237 247 269 286 289 282 278 263 267 270 282 286 289 290 295 296 297 301 305 308 310 309 310 311 311 312
216 209 211 214 216 221 210 191 210 221 201 209 228 229 243 247 237 228 216 238 282 283 272 272 292 286 303 295 283 284 281 291 294 295 297 300 304 306 306 307 307 308 309
217 199 204 214 217 216 218 210 214 225 215 209 220 227 233 248 234 223 214 204 215 257 268 263 283 306 307 295 286 280 281 293 299 298 297 298 301 301 301 303 305 305 306
213 209 210 211 214 217 215 214 223 217 226 227 219 226 233 240 236 224 222 230 229 241 264 267 272 286 298 303 295 294 288 294 296 296 296 296 297 299 301 303 303 304 306
210 213 215 211 214 220 219 212 218 214 223 239 230 223 232 235 235 230 224 224 233 237 260 281 284 291 297 294 309 303 294 286 287 293 296 297 297 298 298 300 302 304 307
216 214 217 217 217 220 220 213 217 219 221 234 234 225 234 239 244 238 229 232 238 242 250 274 285 294 294 289 302 305 306 298 292 295 298 298 298 298 298 299 301 302 305
218 212 214 219 222 221 221 220 217 220 225 236 234 224 231 234 242 245 239 235 241 256 254 260 277 288 294 292 302 304 302 299 298 296 299 299 298 300 300 301 302 303 303
209 209 216 225 226 229 229 224 221 222 229 237 238 225 226 230 233 238 239 236 239 248 251 254 265 275 283 283 287 292 304 297 296 299 301 300 299 301 300 302 305 304 304
211 207 210 220 225 226 225 220 226 228 230 234 239 230 228 234 237 239 245 235 231 238 246 248 256 271 276 273 276 282 293 298 301 295 301 297 296 293 292 296 302 304 305
209 202 208 213 220 230 228 228 228 231 233 231 235 231 232 233 242 254 258 254 241 233 237 243 253 253 258 261 269 275 287 302 301 291 305 296 290 293 293 286 292 301 306
202 206 208 208 220 229 226 237 242 231 230 225 227 225 241 247 248 242 251 255 255 250 244 238 240 246 253 248 248 263 270 288 287 285 303 295 291 291 294 290 297 306 311
198 201 203 208 216 230 230 240 251 242 232 226 228 224 221 226 239 240 244 249 251 258 249 238 231 244 247 242 234 250 267 289 290 286 282 289 295 295 300 286 292 303 311
198 202 205 206 215 229 235 240 246 229 228 234 238 231 221 219 242 248 233 242 268 272 271 261 264 267 270 269 271 278 286 293 298 295 282 272 289 300 293 284 281 301 314
195 190 214 216 218 225 237 243 240 214 220 233 242 244 235 238 243 244 221 218 244 261 266 274 273 283 279 272 274 249 234 266 294 292 278 299 291 314 307 286 288 305 315
Height
1525 1525 1526 1526 1527 1527 1527 1528 1528 1528 1529 1530 1530 1530 1531 1531 1531 1531 1531 1532 1532 1532 1532 1532 1532 1532 1533 1533 1533 1533 1533 1533 1533 1532 1532 1531 1531 1531 1530 1529 1529 1528 1528
1523 1524 1524 1525 1525 1526 1526 1527 1527 1527 1527 1528 1528 1529 1529 1530 1530 1530 1530 1530 1530 1531 1531 1531 1531 1531 1531 1532 1532 1532 1531 1531 1531 1531 1530 1529 1529 1528 1528 1527 1526 1526 1525
1522 1522 1523 1523 1524 1524 1525 1525 1525 1526 1526 1526 1527 1527 1528 1528 1528 1528 1528 1528 1528 1529 1529 1529 1529 1530 1530 1530 1530 1530 1530 1529 1529 1528 1528 1527 1526 1525 1525 1525 1524 1523 1522
1520 1520 1521 1521 1522 1523 1523 1523 1523 1524 1524 1525 1525 1525 1526 1526 1526 1526 1526 1526 1527 1527 1527 1527 1527 1528 1528 1528 1528 1527 1527 1527 1527 1526 1526 1525 1524 1523 1522 1522 1521 1520 1519
1517 1518 1518 1519 1520 1521 1521 1521 1521 1522 1523 1523 1523 1524 1524 1524 1524 1524 1524 1525 1525 1525 1525 1525 1525 1526 1526 1526 1525 1525 1525 1524 1524 1524 1523 1522 1521 1520 1519 1518 1517 1517 1516
1515 1515 1516 1517 1517 1518 1518 1519 1519 1520 1521 1521 1521 1522 1522 1522 1522 1522 1523 1523 1523 1523 1523 1523 1523 1523 1523 1523 1523 1522 1522 1521 1521 1521 1520 1519 1518 1517 1516 1515 1514 1513 1513
1512 1512 1513 1514 1515 1515 1516 1516 1517 1518 1518 1519 1519 1520 1520 1520 1520 1521 1521 1521 1521 1521 1521 1521 1521 1521 1521 1520 1520 1520 1519 1519 1518 1518 1517 1516 1515 1514 1513 1512 1510 1510 1509
1509 1510 1510 1511 1512 1512 1513 1513 1514 1515 1516 1517 1517 1517 1518 1519 1518 1519 1519 1519 1519 1519 1519 1518 1518 1518 1518 1517 1517 1517 1516 1516 1515 1514 1514 1513 1512 1511 1510 1509 1507 1506 1505
1506 1506 1507 1508 1508 1509 1510 1510 1511 1512 1513 1514 1515 1516 1516 1516 1516 1516 1516 1516 1516 1516 1516 1516 1515 1515 1515 1514 1514 1513 1513 1513 1512 1511 1510 1509 1508 1508 1507 1506 1505 1503 1501
1502 1503 1504 1505 1505 1506 1507 1508 1508 1509 1510 1511 1512 1513 1514 1514 1514 1513 1514 1514 1514 1514 1513 1513 1512 1512 1511 1511 1510 1510 1510 1509 1508 1507 1507 1505 1505 1504 1503 1502 1501 1499 1498
1499 1499 1500 1501 1502 1502 1503 1504 1505 1506 1507 1507 1508 1509 1510 1511 1511 1511 1509 1510 1510 1511 1510 1510 1509 1509 1508 1507 1507 1507 1506 1505 1504 1503 1503 1502 1500 1499 1498 1497 1496 1495 1493
1495 1495 1496 1497 1498 1499 1500 1501 1501 1502 1503 1504 1505 1506 1506 1507 1507 1507 1506 1506 1506 1506 1507 1506 1506 1505 1505 1504 1503 1503 1502 1501 1500 1499 1498 1497 1496 1495 1494 1493 1491 1490 1489
1490 1491 1493 1493 1494 1495 1496 1497 1498 1498 1499 1500 1501 1502 1503 1504 1504 1505 1504 1503 1503 1502 1503 1503 1502 1502 1501 1501 1500 1499 1498 1497 1496 1495 1494 1493 1492 1490 1489 1488 1487 1485 1484
1486 1488 1489 1490 1490 1491 1493 1493 1494 1495 1496 1496 1497 1498 1499 1500 1501 1501 1501 1501 1499 1499 1499 1499 1499 1498 1498 1497 1496 1495 1494 1493 1491 1491 1490 1488 1487 1486 1485 1483 1482 1480 1479
1483 1484 1485 1485 1486 1487 1489 1490 1490 1491 1492 1492 1493 1494 1495 1496 1496 1497 1497 1498 1498 1496 1494 1494 1495 1494 1494 1493 1492 1491 1490 1489 1487 1486 1485 1484 1482 1481 1480 1479 1477 1476 1474
1478 1479 1480 1481 1482 1483 1485 1486 1486 1487 1488 1488 1489 1490 1491 1491 1492 1493 1493 1493 1494 1493 1492 1490 1490 1490 1490 1489 1488 1487 1486 1485 1483 1482 1481 1480 1478 1477 1476 1474 1473 1471 1470
1474 1475 1476 1477 1478 1479 1480 1482 1483 1483 1484 1484 1485 1486 1486 1487 1487 1488 1489 1489 1489 1489 1488 1487 1487 1486 1485 1485 1484 1483 1482 1480 1479 1478 1476 1475 1474 1472 1471 1470 1468 1467 1465
1470 1471 1472 1473 1473 1475 1476 1477 1478 1479 1480 1480 1481 1481 1482 1483 1483 1484 1484 1485 1485 1485 1485 1483 1482 1482 1481 1481 1480 1479 1477 1476 1475 1474 1472 1471 1470 1468 1467 1466 1464 1462 1461
1466 1467 1468 1468 1469 1470 1472 1473 1474 1474 1475 1476 1476 1477 1478 1478 1479 1479 1480 1480 1480 1481 1480 1480 1478 1478 1477 1476 1475 1474 1473 1472 1471 1470 1468 1467 1465 1464 1463 1461 1460 1458 1456
1461 1462 1463 1464 1465 1466 1467 1468 1469 1470 1471 1472 1472 1473 1473 1474 1475 1475 1476 1476 1476 1476 1476 1476 1475 1474 1473 1472 1471 1470 1468 1467 1466 1465 1464 1463 1461 1460 1459 1457 1455 1454 1452
1457 1458 1459 1460 1461 1462 1463 1464 1465 1465 1466 1467 1468 1468 1469 1470 1471 1472 1472 1472 1472 1472 1472 1471 1470 1470 1469 1468 1467 1466 1464 1463 1462 1461 1459 1459 1458 1456 1455 1453 1451 1450 1448
1453 1454 1455 1456 1457 1458 1458 1459 1460 1461 1462 1462 1463 1464 1465 1466 1467 1467 1468 1468 1468 1468 1467 1467 1466 1465 1465 1465 1464 1463 1461 1460 1458 1458 1456 1455 1454 1452 1450 1449 1447 1446 1444
1449 1450 1451 1452 1453 1454 1455 1455 1456 1457 1457 1458 1459 1460 1461 1462 1462 1463 1463 1463 1464 1464 1464 1463 1462 1461 1461 1460 1460 1458 1458 1457 1455 1454 1453 1450 1450 1448 1447 1445 1444 1443 1441
1446 1446 1448 1448 1449 1450 1451 1452 1452 1453 1453 1454 1455 1456 1457 1457 1458 1458 1458 1458 1458 1459 1459 1458 1458 1458 1457 1457 1456 1455 1454 1453 1452 1451 1450 1448 1446 1445 1443 1442 1441 1439 1438
1442 1443 1444 1445 1446 1446 1447 1448 1448 1449 1449 1450 1451 1452 1452 1453 1454 1454 1454 1454 1454 1454 1454 1454 1454 1454 1453 1453 1452 1451 1450 1449 1447 1447 1447 1445 1443 1441 1440 1438 1437 1436 1434
1439 1440 1441 1442 1442 1443 1443 1444 1445 1445 1446 1446 1447 1447 1448 1449 1450 1450 1450 1450 1450 1450 1450 1450 1450 1449 1449 1449 1448 1448 1447 1446 1444 1443 1442 1442 1440 1439 1436 1434 1434 1433 1431